Location: Burzi?i
(45.0869°N, 16.0577°E)
Time: 11:54:02
(UTC+00:00)

Cosmos 1076 Rocket - Pass Details

Date: 29 October 2020
Orbit: 589 x 613 km, 82.5° (Epoch: 28 November)

Event Time Altitude Azimuth Distance (km) Brightness Sun altitude
Rises 16:50:25 0° 0° (N) 2,834 6.9 -11.6°
Reaches altitude 10° 16:52:52 10° 12° (NNE) 1,929 5.9 -12.0°
Maximum altitude 16:56:37 29° 74° (ENE) 1,087 4.2 -12.7°
Drops below altitude 10° 17:00:20 10° 135° (SE) 1,921 5.7 -13.4°
Sets 17:02:45 0° 147° (SSE) 2,821 6.7 -13.8°
